Location: Asheville, NC
(35.6000°N, 82.5500°W)
Time: 18:44:54
(UTC-05:00)

Vanguard 2 Rocket - Pass Details

Date: 11 February 2018
Orbit: 555 x 3327 km, 32.9° (Epoch: 17 February)

Event Time Altitude Azimuth Distance (km) Brightness Sun altitude
Rises 04:20:57 0° 268° (W) 7,013 - -37.1°
Reaches altitude 10° 04:25:24 10° 267° (W) 6,152 - -36.2°
Exits shadow 04:38:13 50° 262° (W) 3,904 9.5 -33.6°
Maximum altitude 04:46:02 82° 184° (S) 3,177 9.4 -32.0°
Drops below altitude 10° 05:02:14 10° 100° (E) 5,015 11.6 -28.7°
Sets 05:05:27 0° 99° (E) 5,723 12.2 -28.1°
